Location: Bukovany
(49.8234°N, 14.6297°E)
Time: 06:02:16
(UTC+00:00)

Cosmos 2251 Rocket - Pass Details

Date: 17 November 2025
Orbit: 760 x 788 km, 74.0° (Epoch: 17 December)

Event Time Altitude Azimuth Distance (km) Brightness Sun altitude
Rises 18:02:41 0° 222° (SW) 3,237 7.3 -26.7°
Reaches altitude 10° 18:05:09 10° 228° (SW) 2,318 6.5 -27.1°
Maximum altitude 18:10:12 45° 301° (WNW) 1,051 4.5 -27.9°
Enters shadow 18:12:45 27° 358° (N) 1,489 5.0 -28.3°
